Back to catalog

FLOCK 4H 12

AliveScienceSSO
NORAD 66715·PAYLOAD·🇺🇸 United States

Launched Nov 28, 2025 from Vandenberg Space Force Base

Loading…

Next Passes (next 24 hours)

TLE

FreshSource: CelesTrak SupGP

Epoch: Sep 14, 2026, 06:45 UTC

1 66715C 25276BB  26257.28133102  .00007530  00000+0  33559-3 0  2578
2 66715  97.4118 329.5920 0002880  53.9133  16.1691 15.21492383    12

Track FLOCK 4H 12 in real time with AllMySat

Download on the App Store